CZ-6A DEB, 55895

Orbit data source: Space-Track

CZ-6A DEB, 55895 is space debris in SSO originally from a launch on Fri, 11 Nov 2022 UTC launched from the Taiyaun Space Center, China (TSC). Debris objects in space refer to the collection of defunct objects orbiting the Earth. Examples of debris include non-operational satellites, rocket bodies, and fragments generated from explosions, collisions, or faulty payload assembly.

Loading next visibility...
Identifier
55895, 2022-151AAT
Orbit
SSO
Country
Flag of CNCN / PRC
Related business
Manufacturer
SAST
Mission
Spacecraft
Bus & Motor
Unknown
Mass
Unknown
Launch date (UTC)
2022-11-11 (4 years ago)
Launch vehicle
Unknown
Launch site
Taiyaun Space Center, China (TSC)
Object type
Payload
Rocket body
Debris
Shape & HBR
Unknown shape, 0.1 m
Radar Cross Section
Small (<0.1 m²)

Expand to show TLE details & history
Last TLE update: 21 hours ago

TLE from 21 hours ago
0 CZ-6A DEB
1 55895U 22151AAT 26236.10999296  .00017859  00000-0  23318-2 0  9996
2 55895  98.5872 296.9533 0089626  93.5351 267.6114 14.77743616194701
Epoch: 2026-08-24T02:38Z
TLE epoch observation values (Epoch: 2026-08-24T02:38:23.391Z)
Latitude
0.00001°
Longitude
-75.04057°
Altitude
642.636 km
Speed
7.535 km/s
True Right ascension
19h 47m 48s
True Declination
0° 00' 00"
Sunlit
Object was in full shadow at epoch
Visualization orbit readout
Latitude
Unknown
Longitude
Unknown
Altitude
Unknown
Speed
Unknown
Apparent Right ascension
Unknown
Apparent Declination
Unknown
Sunlit
N/A
Visualization observer readout
Local Sidereal Time
15:05:02
Azimuth
Unknown
Elevation
Unknown
Doppler factor
Unknown
Orbital elements
Apogee altitude
696.374 km
Perigee altitude
570.688 km
Semi-major axis
7,011.668 km
Eccentricity
0.00896
Inclination
98.5872°
RAAN
296.9533°
Arg. of periapsis
93.5351°
True anomaly
266.58579°
Mean anomaly
267.6114°
Eccentric anomaly
267.09854°
Mean motion
3.69667 °/min
Orbital period
97.38 mins
BSTAR
0.0023318
Loading maneuver chart data...
Computing Atmospheric mass density...
Loading historical data...
Loading historical data...
Loading historical data...
Loading historical data...
Loading historical data...
Loading historical data...
Loading historical data...

Documentation

Showing up to 5 results
|